Theta_e
290 289 289 288 288 288 287 286 286 285 285 285 284 284 283 284 284 283 283 282 282 282 282 282 282 282 282 281 281 281 281 280 280 280 280 280 280 280 279 279 280 279
289 288 288 288 287 287 286 286 286 285 284 284 283 283 283 283 282 282 281 281 281 281 281 281 281 281 280 280 280 279 279 279 279 281 279 279 279 279 279 279 279 279
288 287 287 286 285 285 285 285 285 284 283 283 283 282 282 282 281 281 281 280 280 280 280 280 280 280 279 279 279 279 278 278 278 279 279 279 279 279 279 279 279 279
287 286 286 285 285 284 284 283 283 282 282 281 281 281 281 281 281 280 280 280 279 279 279 279 279 279 279 278 278 278 278 278 278 279 278 278 279 279 278 279 279 279
286 285 285 284 284 284 283 282 281 281 281 281 281 281 280 280 279 279 279 279 279 278 278 278 278 278 278 278 278 277 277 277 278 278 277 277 277 277 277 277 277 277
285 284 284 283 283 282 281 280 280 280 280 280 280 280 279 279 279 278 278 278 278 277 277 277 277 277 277 277 277 276 276 276 276 276 275 275 275 276 276 276 276 275
283 283 282 282 281 281 280 280 280 280 280 280 279 279 279 278 278 277 277 277 277 277 276 276 276 276 276 275 275 275 275 275 274 274 273 274 274 274 274 274 274 274
282 282 281 280 280 280 279 279 279 279 279 279 278 278 278 277 277 277 277 276 276 276 275 275 275 275 275 274 274 273 273 273 273 272 272 272 272 272 272 273 273 272
281 280 280 279 278 278 278 278 278 278 278 277 277 277 277 277 276 276 276 275 275 274 274 274 274 273 273 273 273 272 272 272 272 272 271 271 271 271 271 272 271 271
280 279 278 278 277 277 277 277 277 277 277 276 276 276 276 276 276 275 274 274 273 273 273 273 272 272 272 272 272 271 271 271 271 271 271 270 270 270 270 270 270 270
278 278 277 276 276 276 276 276 276 276 276 275 275 275 275 274 274 274 273 272 272 272 272 272 272 271 271 271 271 271 271 270 270 270 270 270 270 270 271 270 270 270
277 276 276 276 276 276 276 276 275 275 275 275 274 274 273 273 272 272 272 271 272 271 271 271 271 271 271 271 271 271 271 270 270 270 270 270 270 271 270 270 270 271
276 276 276 276 276 276 276 275 275 275 274 273 273 272 272 271 272 271 271 271 271 271 271 271 270 270 270 270 270 270 270 270 270 270 270 271 271 271 271 272 272 271
276 276 276 276 276 276 275 275 274 274 273 272 272 271 270 270 270 270 270 270 270 270 270 270 270 270 270 270 270 271 271 270 270 271 271 271 272 272 272 272 272 272
276 276 276 275 275 275 274 273 273 272 271 271 270 270 270 270 269 269 269 269 269 269 270 270 270 270 270 270 270 270 271 271 271 272 272 272 272 272 272 272 272 272
276 275 275 274 274 273 273 272 271 270 270 269 269 268 268 268 268 268 268 268 268 269 270 270 270 270 271 273 273 272 272 272 273 273 273 272 272 272 272 273 273 274
275 274 274 273 273 272 272 271 270 269 268 267 267 267 267 267 267 267 267 268 269 269 269 269 270 270 272 273 274 276 274 273 273 273 273 273 273 273 272 273 274 274
274 273 273 272 271 270 269 269 268 267 266 266 266 266 266 266 266 267 268 269 269 269 269 269 269 271 273 274 275 276 276 274 274 273 273 273 273 273 273 273 273 273
273 272 271 270 270 269 268 267 266 265 265 265 265 266 266 266 266 267 268 268 268 268 268 269 269 271 273 274 275 276 276 276 274 274 273 273 273 273 273 273 273 273
272 271 270 269 268 267 266 265 264 264 265 265 265 266 265 266 266 267 267 267 268 268 267 268 268 270 272 274 275 276 277 276 274 274 274 273 273 273 273 273 273 273
271 270 269 267 266 266 265 265 264 264 265 265 265 265 265 266 266 266 267 267 266 266 266 266 267 271 273 274 275 276 277 277 274 273 273 273 273 273 273 273 273 273
269 268 267 266 265 265 264 264 264 264 264 265 265 266 266 267 267 267 266 265 266 266 266 266 267 271 272 273 275 276 277 274 273 272 272 272 272 273 273 273 273 273
268 267 266 265 264 264 264 264 264 264 264 265 265 265 265 266 266 266 266 266 265 265 265 265 266 269 272 273 275 276 275 272 272 272 272 272 272 273 273 273 274 274
267 266 265 265 264 264 263 264 264 265 264 265 264 264 265 265 265 265 266 266 265 265 265 265 265 268 272 273 274 275 275 272 272 271 271 272 272 273 273 274 274 276
266 266 265 264 264 264 264 264 264 264 265 265 264 265 265 265 265 265 265 265 265 265 267 267 267 268 272 273 274 275 274 272 272 271 270 271 271 272 273 274 274 275
265 265 264 264 264 264 264 264 264 264 264 264 264 264 264 265 265 265 264 264 265 265 266 267 267 268 270 273 274 274 275 273 272 271 270 271 272 272 272 272 273 273
Wind_Speed
11 9 9 8 8 7 7 7 6 6 5 5 5 4 4 3 3 3 4 5 6 7 7 7 7 7 6 7 7 7 7 8 8 8 8 9 9 11 11 12 12 12
12 11 9 8 7 7 7 7 7 6 6 5 4 4 3 3 3 4 5 6 6 7 7 7 7 8 7 7 7 7 8 8 9 7 8 10 10 11 12 14 14 13
12 11 11 10 9 9 8 7 6 6 5 5 5 4 3 3 4 4 5 6 7 7 7 7 8 8 8 7 7 8 8 8 9 9 9 10 10 11 11 12 11 13
13 12 11 10 9 9 8 7 6 6 5 5 6 5 4 4 4 5 6 7 7 7 7 7 8 7 7 8 8 8 8 9 9 9 10 9 10 10 11 11 12 12
14 12 10 10 9 9 8 8 8 7 7 6 5 6 5 5 5 6 6 6 6 7 7 8 8 8 7 7 8 8 8 8 8 8 9 11 10 10 10 11 13 14
12 11 11 10 10 10 9 8 8 8 7 7 7 5 5 6 6 6 7 7 6 7 7 8 8 7 7 7 7 8 8 8 8 9 10 11 11 10 9 11 13 14
13 13 13 11 11 10 9 9 8 8 7 6 6 6 6 6 7 7 7 7 7 8 8 8 8 8 7 7 7 8 8 8 9 9 11 10 11 12 11 12 13 14
14 12 12 11 12 11 10 9 8 8 7 7 7 6 6 7 7 6 6 7 7 8 8 8 8 8 7 7 8 8 8 7 7 9 11 11 11 12 12 11 12 14
13 12 12 13 13 10 10 10 9 8 8 8 7 6 6 7 7 7 7 7 7 8 8 8 8 8 7 7 8 8 9 9 9 10 11 12 12 12 12 12 13 13
14 13 14 13 12 10 12 11 9 9 8 8 7 6 6 6 6 7 6 7 8 9 9 8 7 7 7 7 8 8 9 10 10 10 11 12 12 12 12 12 13 14
15 14 14 13 13 10 12 11 10 9 8 8 7 7 6 6 6 6 6 7 8 8 8 8 7 7 7 8 8 8 9 10 10 11 11 12 12 12 13 13 14 14
15 14 14 14 13 11 12 11 10 9 8 7 7 7 6 6 6 5 6 7 8 8 8 7 7 7 7 8 8 9 9 10 10 11 11 11 12 12 12 12 13 15
14 14 13 13 12 11 10 10 9 9 9 8 7 6 6 6 6 6 6 7 8 7 7 7 7 7 7 8 9 9 10 10 10 11 11 10 11 13 14 16 18 18
13 12 12 11 11 10 10 9 9 8 8 7 6 6 6 6 6 6 6 7 7 7 7 6 6 7 8 8 9 9 9 9 9 11 12 14 15 15 15 16 17 18
12 11 10 10 10 10 10 9 9 8 8 7 6 6 5 5 5 6 7 8 8 7 7 6 6 7 6 6 7 8 8 10 12 12 13 14 15 15 17 17 18 19
12 10 11 10 10 10 10 9 8 8 7 6 6 6 5 5 5 6 7 8 8 7 6 6 6 6 8 13 12 9 10 11 11 13 14 14 14 16 15 16 18 16
11 10 10 10 10 8 8 8 8 7 6 6 5 5 5 4 5 7 8 8 8 6 5 6 6 6 11 13 14 17 13 12 12 13 13 14 15 14 17 17 15 17
10 10 9 8 8 8 8 7 7 6 6 6 5 6 5 5 6 8 8 7 6 5 6 6 7 10 14 14 16 16 16 13 12 12 13 13 13 15 14 16 18 16
10 9 9 8 8 8 7 7 6 6 6 6 6 5 5 6 7 7 8 7 6 5 6 6 8 11 13 15 16 17 18 17 12 12 13 13 15 15 15 17 15 18
9 9 9 9 8 8 8 7 7 6 6 5 5 5 5 6 7 8 7 6 5 5 5 6 8 10 14 15 16 18 18 17 12 14 13 14 15 15 16 17 18 17
10 9 9 9 9 8 8 7 7 6 6 5 5 5 6 6 7 7 7 5 5 4 4 6 7 13 14 16 17 18 19 18 12 12 12 13 14 16 17 16 19 19
10 10 9 9 9 8 8 8 7 7 7 6 5 5 5 5 6 6 6 5 5 5 5 6 7 13 14 15 17 17 20 13 11 12 13 14 16 15 15 18 18 17
10 11 10 10 9 9 8 8 8 7 6 5 5 5 5 6 6 5 5 5 5 5 5 5 6 10 13 15 16 18 16 11 12 12 12 14 15 15 17 18 15 17
10 10 11 10 9 9 9 7 6 5 5 5 5 5 6 6 5 5 4 5 5 5 4 5 6 10 14 15 16 17 16 12 12 12 14 13 14 18 16 14 18 29
9 9 9 10 9 9 8 8 7 6 5 5 4 4 5 5 5 4 4 4 5 5 7 6 6 8 12 13 15 16 15 11 11 11 13 14 17 16 14 16 17 18
8 9 8 9 9 9 8 7 6 6 6 5 5 4 5 5 4 4 4 5 5 5 4 4 5 6 8 14 15 16 17 12 11 11 13 17 14 12 16 18 17 16
Wind_Direction
180 179 181 182 184 184 185 188 192 194 202 207 215 218 222 219 216 227 245 257 259 265 268 268 270 269 271 269 270 274 273 272 272 269 268 267 265 264 264 262 260 258
178 176 175 176 178 182 183 185 190 191 200 205 213 221 228 233 236 242 250 256 261 262 265 264 265 268 270 269 272 273 271 269 270 269 270 266 266 266 265 264 264 262
174 174 174 177 178 178 175 175 185 191 196 203 213 219 226 227 239 244 249 252 258 261 264 264 264 265 266 268 272 272 270 272 273 273 272 271 270 269 268 271 269 266
174 173 172 175 173 172 171 172 182 188 195 203 208 211 212 218 226 240 247 251 254 257 259 261 261 266 267 269 270 269 271 272 272 274 274 273 270 270 271 272 272 269
168 169 168 170 168 165 167 177 185 191 197 202 202 204 207 215 226 235 239 248 248 256 260 261 264 265 268 268 268 271 273 273 274 274 274 276 273 274 276 276 275 273
165 165 164 166 167 165 175 181 187 192 197 200 203 201 212 213 222 232 242 244 248 254 257 260 262 263 265 269 268 266 269 271 274 275 275 274 275 273 274 274 275 274
164 164 164 164 164 170 175 180 185 191 197 199 196 205 203 212 218 228 234 238 245 250 252 255 258 260 260 263 263 265 267 268 272 273 273 270 272 273 271 274 273 274
163 163 162 163 165 169 176 177 185 188 189 192 201 202 204 213 218 226 232 238 244 250 252 254 256 255 257 256 259 264 266 266 268 271 269 270 271 270 270 269 272 273
161 162 163 166 167 171 177 178 182 184 186 192 197 198 202 207 215 221 227 235 245 249 249 249 251 252 253 257 260 262 267 267 266 267 268 270 268 269 270 273 273 272
163 162 164 167 169 173 175 178 179 182 184 189 194 194 200 205 208 219 227 235 242 246 246 246 248 254 255 256 261 264 265 268 268 265 265 266 268 269 270 272 271 273
164 163 166 169 169 170 173 175 177 176 181 186 188 194 198 202 214 217 227 235 240 241 244 247 249 252 259 259 261 262 265 267 267 267 266 267 267 268 269 269 269 268
163 163 168 169 168 168 170 172 172 177 178 181 186 191 195 204 213 221 224 236 241 245 247 251 253 256 258 262 264 265 266 266 266 266 267 268 269 268 267 266 268 272
164 166 164 164 165 164 164 168 171 174 174 175 176 183 193 206 214 219 230 236 244 247 248 252 256 258 260 263 263 262 265 266 271 273 272 272 272 275 279 280 279 277
162 159 158 159 159 158 161 164 165 164 169 168 170 181 196 208 213 221 232 238 244 246 249 251 256 256 259 259 262 267 270 272 274 278 281 281 278 274 272 270 268 268
151 150 151 149 151 154 156 160 160 160 162 167 172 184 197 206 214 224 235 242 242 241 245 252 252 255 254 254 262 270 272 279 281 278 277 279 277 276 275 271 270 269
145 143 146 144 151 155 157 156 158 158 162 167 176 188 198 205 214 229 236 239 241 241 245 249 251 253 254 258 264 270 280 283 284 283 282 278 279 280 276 275 273 272
138 144 144 149 151 151 149 153 156 157 162 168 176 189 200 206 217 229 232 233 232 238 249 254 257 254 258 264 271 279 285 287 285 285 281 283 282 280 284 284 283 281
139 139 142 145 144 146 145 147 151 154 162 169 177 190 201 204 218 227 232 233 232 237 248 257 263 264 271 276 283 287 289 288 288 289 289 286 284 285 286 290 288 288
137 139 139 140 144 144 144 146 154 158 164 172 186 191 197 210 221 229 229 229 234 235 247 259 266 272 277 285 290 293 293 295 291 290 287 285 289 289 288 288 287 290
137 138 140 141 139 141 146 152 161 170 170 175 178 192 203 217 226 229 231 231 229 238 255 262 269 275 283 292 297 298 299 300 293 293 291 291 290 289 290 290 290 293
135 136 135 137 140 146 152 160 166 168 171 177 183 194 203 215 224 226 228 222 233 241 248 263 266 277 290 298 300 301 303 306 301 298 293 290 290 290 288 288 292 288
135 137 137 140 147 152 157 162 166 171 171 178 186 198 206 220 232 227 227 228 231 235 245 262 273 288 298 301 302 306 309 309 303 299 298 295 293 288 288 291 286 283
143 140 141 145 150 153 160 165 165 167 172 175 185 197 207 221 222 230 227 229 233 236 248 266 278 292 297 302 307 311 314 308 307 303 300 298 291 293 294 289 286 285
143 142 144 146 153 158 158 160 155 161 171 181 183 196 210 214 224 231 233 232 236 240 251 269 280 288 295 303 309 311 314 312 310 307 302 298 298 298 293 288 291 294
134 139 140 146 147 152 154 153 159 162 166 175 190 201 215 218 223 230 234 247 244 247 261 275 274 279 293 302 308 312 317 315 311 307 302 300 301 296 295 299 297 301
130 130 132 138 144 141 143 145 147 154 166 175 191 204 213 217 211 225 242 256 256 242 245 265 280 284 292 299 307 313 318 318 313 307 305 303 298 299 306 305 304 303